Regional Weather Roundup
Issued by NWS Newport/Morehead, NC

Home | Current Version | Previous Version | Text Only | Print | Product List | Glossary On
Versions: 1 2 3 4 5 6 7 8 9 10 11 12 13 14 15 16 17 18 19 20 21 22 23 24 25 26 27 28 29 30 31 32 33 34 35 36 37 38 39 40 41 42 43 44 45 46 47 48 49 50
000
ASUS42 KMHX 080025
RWRMHX
WEATHER ROUNDUP FOR EASTERN NORTH CAROLINA
NATIONAL WEATHER SERVICE NEWPORT/MOREHEAD CITY NC
800 PM EDT TUE JUL 07 2015

NOTE: "FAIR" INDICATES FEW OR NO CLOUDS BELOW 12,000 FEET
WITH NO SIGNIFICANT WEATHER AND/OR OBSTRUCTIONS TO VISIBILITY

NCZ015>017-031-032-045>047-102-103-080100-
NORTH COAST

CITY           SKY/WX    TMP DP  RH WIND       PRES   REMARKS
EDENTON          N/A     84  74  71 SW9       30.06S
ELIZABETH CITY CLEAR     84  74  71 S8        30.06R
KITTY HAWK     CLEAR     84  74  70 SW8       30.07R
MANTEO         CLEAR     83  76  79 SW16      30.08S

$$

NCZ045>047-081-094-103-104-080100-
CENTRAL COAST

CITY           SKY/WX    TMP DP  RH WIND       PRES   REMARKS
FRISCO         CLEAR     78  74  87 SW10      30.11S
SWANQUARTER      N/A     82 N/A N/A SW17G23   30.06S

$$

NCZ095-097-098-100-101-080100-
SOUTHERN COAST

CITY           SKY/WX    TMP DP  RH WIND       PRES   REMARKS
BEAUFORT       CLEAR     81  74  79 SW15      30.11S
CEDAR ISLAND     N/A     81 N/A N/A S7G15     30.15S
JACKSONVILLE   PTCLDY    81  73  76 S8        30.09S
PINEY ISLAND   CLEAR    N/A N/A N/A S12       30.10S
WILMINGTON     PTCLDY    83  70  64 SW14      30.11R


$$

NCZ011>013-027>030-043-044-078>080-089-090>093-098-080100-
COASTAL PLAIN

CITY           SKY/WX    TMP DP  RH WIND       PRES   REMARKS
AHOSKIE        CLEAR     82  75  80 CALM      30.06R
CLINTON        CLEAR     83  73  71 S3        30.09S
ELIZABETHTOWN  CLEAR     83  72  67 S5        30.10R
GOLDSBORO      PTCLDY    85  73  66 S9        30.05R
GREENVILLE     PTCLDY    86  73  66 S12       30.08R
HAVELOCK       CLEAR     81  71  71 SW9       30.11R
KENANSVILLE    MOCLDY    83  69  64 CALM      30.10R
KINSTON        PTCLDY    86  73  66 S12       30.08R
NEW BERN       CLEAR     82  72  71 S7        30.11R
RICHLANDS      PTCLDY    82  70  65 S8        30.10S
ROCKY MOUNT    CLEAR     86  72  62 SW5       30.06S
WASHINGTON     CLEAR     83  73  72 S6        30.08R
WHITEVILLE     PTCLDY    82  74  74 S7        30.10R

$$

AMZ130-135-150-152-154-156-158-170-250-252-270-ANZ085-086-088-633-658-670-080100-
MARINE OBSERVATIONS

STATION/POSITION TIME  TEMP    WIND        PRES    WAVE   SWELL
                       AIR SEA DIR/SP/G            HT/PER HT/PER
                 (UTC) (F)     (DEG/KT/KT) (MB)    (FT/S) (FT/S)
CHESAPEAKE LIGHT 0000   81     180/ 14/ 15 1017.8
64 E VA BEACH    2350   79 77  200/ 16/ 17 1017.5    4/ 9   2/ 9
DUCK             0000   84 75  200/ 14/ 18   N/A
2 E DUCK         0011      77                N/A     2/13   2/13
OREGON INLET     0000   82 85  200/ 19/ 22 1018.6
13E OREGON INLT  0000      79                N/A     3/ 8   2/14
HATTERAS CG      0000   80 82  210/ 10/ 15 1019.1
DIAMOND BUOY     2350   82 83  210/ 17/ 19 1019.2    3/ 8   2/ 8
CAPE LOOKOUT     0000   81     210/ 10/ 13 1019.5
BEAUFORT LAB     0000   81 84  220/ 10/ 13 1019.0
30 SE NEW RVR IN NOT AVBL
27 SE WRIGHTSVLE 0000      81  230/ 10/ 12   N/A
5 SE WRIGHTSVLE  2308   81 80  210/ 12/ 16 1019.5
225 S CAPE HAT   2350   83 81  210/ 10/ 10 1022.2    4/ 8   3/ 8
41 SE CHARLESTON 2350   83 83  210/ 12/ 12 1019.9    3/ 8   2/ 8

$$



USA.gov is the U.S. government's official web portal to all federal, state and local government web resources and services.